DateTimeUTC,F1_A11,F1_S11,BsB_S11,BsG_S11,BsR_S11,BbsB_S11,BbsG_S11,BbsR_S11,BaB_A11,BaG_A11,BaR_A11,Tu_S11,T_S11,Uu_S11,U_S11,P_S11,T1_A11
2021-03-03T16:00:00Z,00000200,21000000,,,,,,,0000.19,-000.33,0000.24,17.2,24.3,00.3,00.2,0663.0,30.9
2021-03-03T16:01:00Z,00000200,21000000,,,,,,,-000.23,0000.14,-000.27,17.1,24.3,00.3,00.2,0662.9,30.9
2021-03-03T16:02:00Z,00000200,21000000,,,,,,,0000.11,0000.28,0000.23,17.1,24.3,00.3,00.2,0662.9,30.9
2021-03-03T16:03:00Z,00000200,61000000,,,,,,,0000.37,0000.20,-000.06,17.1,24.3,00.3,00.2,0662.9,30.9
2021-03-03T16:04:00Z,00000200,41000000,0000.55,0000.57,0000.36,0000.36,0000.32,0000.05,-000.13,-000.06,0000.35,17.4,24.2,00.5,00.3,0663.8,30.9
2021-03-03T16:05:00Z,00000200,01000000,0000.80,0000.37,0000.33,0000.31,0000.07,-000.05,0000.24,0000.56,0000.14,17.5,24.2,00.4,00.3,0663.8,30.9
2021-03-03T16:06:00Z,00000200,01000000,0000.81,0000.61,0000.54,0000.10,0000.08,0000.17,0000.60,-000.02,0000.24,17.5,24.2,00.5,00.3,0663.8,30.9
2021-03-03T16:07:00Z,00000200,01000000,0000.70,0000.47,0000.45,0000.26,0000.22,0000.08,-000.03,-000.06,0000.00,17.5,24.2,00.6,00.4,0663.8,31.0
2021-03-03T16:08:00Z,00000200,01000000,0001.04,0000.72,0000.26,0000.36,0000.12,0000.03,0000.31,0000.51,0000.09,17.4,24.2,00.5,00.4,0663.8,30.9
2021-03-03T16:09:00Z,00000200,01000000,0000.74,0000.42,0000.42,0000.73,0000.11,0000.16,0000.37,0000.32,0000.16,17.4,24.2,00.6,00.4,0663.9,30.9
2021-03-03T16:10:00Z,00000200,01000000,0001.05,0000.61,0000.34,-000.19,0000.05,0000.16,0000.38,0000.18,0000.06,17.4,24.1,00.6,00.4,0663.9,30.9
2021-03-03T16:11:00Z,00000200,01000000,0001.14,0000.40,0000.30,0000.06,0000.18,0000.10,-000.14,0000.50,0000.53,17.4,24.1,00.6,00.4,0663.9,30.9
2021-03-03T16:12:00Z,00000200,01000000,0000.81,0000.44,0000.10,0000.14,-000.06,0000.13,0000.83,0000.12,0000.04,17.4,24.1,00.7,00.4,0663.9,30.9
2021-03-03T16:13:00Z,00000200,01000000,0000.84,0000.48,0000.21,0000.08,0000.09,0000.34,-000.08,0000.08,0000.19,17.4,24.1,00.8,00.5,0663.9,30.9
2021-03-03T16:14:00Z,00000200,01000000,0000.68,0000.36,0000.39,0000.19,0000.03,0000.04,0000.20,0000.15,-000.02,17.4,24.1,00.7,00.5,0663.9,30.9
2021-03-03T16:15:00Z,00000200,01000000,0001.33,0000.69,0000.41,-000.19,0000.26,0000.03,0000.37,0000.25,0000.40,17.4,24.1,00.8,00.5,0663.9,30.9
2021-03-03T16:16:00Z,00000200,01000000,0000.69,0000.48,0000.22,-000.13,0000.13,0000.18,0000.02,0000.29,0000.23,17.4,24.1,00.9,00.6,0663.9,30.9
2021-03-03T16:17:00Z,00000200,01000000,0001.56,0000.54,0000.54,-000.24,-000.04,0000.15,0000.54,0000.31,0000.22,17.4,24.1,00.8,00.5,0663.9,30.9
2021-03-03T16:18:00Z,00000200,01000000,0000.84,0000.51,0000.50,0000.44,0000.03,0000.20,0000.34,0000.40,0000.16,17.5,24.1,00.8,00.6,0663.9,31.0
2021-03-03T16:19:00Z,00000200,01000000,0000.76,0000.47,0000.51,0000.49,0000.07,0000.20,0000.09,0000.16,0000.23,17.6,24.2,00.8,00.5,0663.9,30.9
2021-03-03T16:20:00Z,00000200,01000000,0000.89,0000.62,0000.50,-000.02,0000.17,0000.21,0000.51,0000.28,0000.07,17.6,24.2,00.8,00.5,0664.0,30.9
2021-03-03T16:21:00Z,00000200,01000000,0000.23,0000.67,0000.25,0000.30,0000.04,0000.22,-000.23,0000.42,0000.17,17.6,24.2,00.7,00.5,0664.0,30.9
2021-03-03T16:22:00Z,00000200,01000000,0000.53,0000.62,0000.40,-000.06,0000.17,0000.35,0000.56,0000.11,-000.10,17.6,24.2,00.8,00.5,0664.0,30.9
2021-03-03T16:23:00Z,00000200,01000000,0000.69,0000.33,0000.23,0000.13,0000.13,-000.01,0000.07,-000.17,0000.27,17.6,24.2,00.8,00.5,0664.0,30.9
2021-03-03T16:24:00Z,00000200,01000000,0000.96,0000.43,0000.32,-000.15,0000.10,0000.12,0000.18,0000.32,0000.25,17.6,24.2,00.8,00.6,0664.0,30.9
2021-03-03T16:25:00Z,00000200,01000000,0000.43,0000.26,0000.46,0000.22,0000.25,0000.03,0000.13,-000.27,-000.17,17.6,24.2,00.7,00.5,0664.1,30.9
2021-03-03T16:26:00Z,00000200,01000000,0001.14,0000.42,0000.27,0000.06,-000.00,0000.02,0000.12,0000.35,0000.02,17.6,24.2,00.8,00.5,0664.1,30.9
2021-03-03T16:27:00Z,00000200,01000000,0000.73,0000.36,0000.23,-000.17,-000.06,-000.01,0000.52,0000.35,0000.30,17.5,24.2,00.7,00.4,0664.1,30.9
2021-03-03T16:28:00Z,00000200,01000000,0000.94,0000.53,0000.43,0000.11,-000.21,0000.15,-000.03,-000.02,0000.15,17.6,24.2,00.7,00.5,0664.1,30.9
2021-03-03T16:29:00Z,00000200,01000000,0001.01,0000.49,0000.20,0000.00,-000.12,0000.12,0000.08,0000.51,0000.31,17.5,24.2,00.8,00.5,0664.1,30.9
2021-03-03T16:30:00Z,00000200,01000000,0000.53,0000.13,0000.13,0000.03,0000.00,0000.19,0000.11,-000.01,-000.08,17.5,24.2,00.7,00.4,0664.2,30.9
2021-03-03T16:31:00Z,00000200,01000000,0000.39,0000.61,0000.22,-000.20,0000.16,-000.01,0000.38,0000.42,0000.31,17.5,24.2,00.8,00.5,0664.2,30.9
2021-03-03T16:32:00Z,00000200,01000000,0001.20,0000.49,0000.29,0000.25,0000.21,0000.17,0000.33,0000.14,0000.16,17.5,24.2,00.9,00.6,0664.2,30.9
2021-03-03T16:33:00Z,00000200,01000000,0000.97,0000.62,0000.43,0000.19,-000.03,0000.12,0000.31,0000.12,0000.24,17.5,24.1,00.8,00.6,0664.3,30.9
2021-03-03T16:34:00Z,00000200,01000000,0001.13,0000.41,0000.28,0000.04,0000.32,-000.08,0000.11,0000.11,-000.16,17.5,24.1,00.8,00.5,0664.3,30.9
2021-03-03T16:35:00Z,00000200,01000000,0000.90,0000.45,0000.05,0000.20,-000.10,0000.15,0000.38,0000.17,-000.04,17.5,24.1,00.9,00.6,0664.3,30.9
2021-03-03T16:36:00Z,00000200,01000000,0000.73,0000.43,0000.29,0000.20,0000.05,-000.01,-000.28,0000.02,0000.37,17.5,24.1,00.8,00.5,0664.3,30.9
2021-03-03T16:37:00Z,00000200,01000000,0001.08,0000.44,0000.05,-000.32,-000.03,0000.08,0000.75,0000.34,0000.27,17.5,24.2,00.8,00.6,0664.3,30.9
2021-03-03T16:38:00Z,00000200,01000000,0000.81,0000.57,0000.31,0000.36,-000.07,-000.08,0000.04,0000.43,0000.15,17.5,24.1,00.9,00.6,0664.3,30.9
2021-03-03T16:39:00Z,00000200,01000000,0000.76,0000.53,0000.29,0000.06,0000.15,-000.06,0000.09,0000.33,0000.26,17.5,24.1,01.0,00.6,0664.4,30.9
2021-03-03T16:40:00Z,00000200,01000000,0001.25,0000.50,0000.38,0000.12,-000.06,0000.06,0000.29,0000.13,0000.11,17.5,24.1,01.0,00.6,0664.4,30.9
2021-03-03T16:41:00Z,00000200,01000000,0001.11,0000.33,0000.30,0000.09,0000.40,0000.05,0000.14,-000.15,0000.10,17.5,24.1,00.9,00.6,0664.4,30.9
2021-03-03T16:42:00Z,00000200,01000000,0000.55,0000.49,0000.33,0000.21,0000.09,0000.05,0000.15,0000.31,0000.02,17.4,24.1,01.0,00.6,0664.4,30.9
2021-03-03T16:43:00Z,00000200,01000000,0000.96,0000.36,0000.50,0000.28,-000.15,0000.19,0000.40,-000.13,0000.02,17.5,24.1,01.0,00.7,0664.5,30.9
2021-03-03T16:44:00Z,00000200,01000000,0000.95,0000.60,0000.16,-000.01,0000.08,0000.18,0000.03,0000.08,0000.36,17.4,24.1,01.1,00.7,0664.5,30.9
2021-03-03T16:45:00Z,00000200,01000000,0000.82,0000.32,0000.56,-000.12,0000.24,0000.02,0000.30,0000.25,-000.06,17.4,24.1,01.1,00.7,0664.5,30.9
2021-03-03T16:46:00Z,00000200,01000000,0000.86,0000.69,0000.30,-000.02,0000.28,0000.07,0000.11,0000.47,-000.26,17.4,24.1,01.0,00.7,0664.5,30.9
2021-03-03T16:47:00Z,00000200,01000000,0000.38,0000.35,0000.22,0000.12,0000.01,0000.05,-000.12,0000.02,0000.50,17.5,24.1,01.0,00.6,0664.5,30.9
2021-03-03T16:48:00Z,00000200,01000000,0001.09,0000.09,0000.08,0000.08,0000.02,0000.11,0000.60,0000.51,0000.22,17.6,24.1,01.0,00.6,0664.6,30.9
2021-03-03T16:49:00Z,00000200,01000000,0000.49,0000.39,0000.30,-000.09,0000.20,0000.05,0000.17,0000.23,0000.55,17.6,24.2,01.0,00.6,0664.6,30.9
2021-03-03T16:50:00Z,00000200,01000000,0000.75,0000.47,0000.23,0000.45,0000.03,0000.23,0000.13,-000.09,-000.25,17.7,24.2,01.0,00.7,0664.6,30.9
2021-03-03T16:51:00Z,00000200,01000000,0000.91,0000.53,0000.19,0000.13,-000.04,0000.00,0000.29,0000.33,-000.23,17.7,24.2,01.0,00.7,0664.6,31.0
2021-03-03T16:52:00Z,00000200,01000000,0000.97,0000.34,0000.04,0000.15,0000.17,-000.14,0000.31,0000.39,0000.26,17.7,24.2,00.9,00.6,0664.7,30.9
2021-03-03T16:53:00Z,00000200,01000000,0000.90,0000.45,0000.22,0000.40,0000.15,0000.16,-000.04,0000.20,0000.44,17.7,24.2,01.0,00.6,0664.8,30.9
2021-03-03T16:54:00Z,00000200,01000000,0000.38,0000.44,0000.47,0000.20,0000.03,0000.45,0000.09,-000.13,-000.24,17.7,24.2,00.9,00.6,0664.8,30.9
2021-03-03T16:55:00Z,00000200,01000000,0001.10,0000.14,0000.19,0000.22,0000.26,0000.16,0000.10,0000.11,0000.22,17.7,24.2,00.9,00.6,0664.8,30.9
2021-03-03T16:56:00Z,00000200,01000000,0000.76,0000.35,0000.05,-000.16,0000.17,0000.09,-000.13,-000.05,0000.02,17.6,24.2,00.9,00.6,0664.9,30.9
2021-03-03T16:57:00Z,00000200,41000000,,,,,,,0000.21,0000.20,0000.21,17.7,24.3,00.9,00.6,0665.0,30.9
2021-03-03T16:58:00Z,00000200,61000000,,,,,,,0000.06,-000.12,-000.20,17.4,24.4,00.6,00.4,0663.9,30.9
2021-03-03T16:59:00Z,00000200,21000000,,,,,,,-000.26,-000.28,-000.03,17.4,24.5,00.6,00.4,0663.9,30.9
